QPF
0.00 0.00 0.00 0.00 0.00 0.00 0.00 0.00 0.00 0.00 0.00 0.00 0.00 0.00 0.00 0.00 0.00 0.00 0.00 0.00 0.00 0.00 0.00 0.00 0.00 0.00 0.00 0.00 0.00 0.00 0.00 0.00 0.00 0.00 0.00 0.00 0.00 0.00 0.00 0.00 0.00 0.00 0.00
0.00 0.00 0.00 0.00 0.00 0.00 0.00 0.00 0.00 0.00 0.00 0.00 0.00 0.00 0.00 0.00 0.00 0.00 0.00 0.00 0.00 0.00 0.00 0.00 0.00 0.00 0.00 0.00 0.00 0.00 0.00 0.00 0.00 0.00 0.00 0.00 0.00 0.00 0.00 0.00 0.00 0.00 0.00
0.00 0.00 0.00 0.00 0.00 0.00 0.00 0.00 0.00 0.00 0.00 0.00 0.00 0.00 0.00 0.00 0.00 0.00 0.00 0.00 0.00 0.00 0.00 0.00 0.00 0.00 0.00 0.00 0.00 0.00 0.00 0.00 0.00 0.00 0.00 0.00 0.00 0.00 0.00 0.00 0.00 0.00 0.00
0.00 0.00 0.00 0.00 0.00 0.00 0.00 0.00 0.00 0.00 0.00 0.00 0.00 0.00 0.00 0.00 0.00 0.00 0.00 0.00 0.00 0.00 0.00 0.00 0.00 0.00 0.00 0.00 0.00 0.00 0.00 0.00 0.00 0.00 0.00 0.00 0.00 0.00 0.00 0.00 0.00 0.00 0.00
0.00 0.00 0.00 0.00 0.00 0.00 0.00 0.00 0.00 0.00 0.00 0.00 0.00 0.00 0.00 0.00 0.00 0.00 0.00 0.00 0.00 0.00 0.00 0.00 0.00 0.00 0.00 0.00 0.00 0.00 0.00 0.00 0.00 0.00 0.00 0.00 0.00 0.00 0.00 0.00 0.00 0.00 0.00
0.00 0.00 0.00 0.00 0.00 0.00 0.00 0.00 0.00 0.00 0.00 0.00 0.00 0.00 0.00 0.00 0.00 0.00 0.00 0.00 0.00 0.00 0.00 0.00 0.00 0.00 0.00 0.00 0.00 0.00 0.00 0.00 0.00 0.00 0.00 0.00 0.00 0.00 0.00 0.00 0.00 0.00 0.00
0.00 0.00 0.00 0.00 0.00 0.00 0.00 0.00 0.00 0.00 0.00 0.00 0.00 0.00 0.00 0.00 0.00 0.00 0.00 0.00 0.00 0.00 0.00 0.00 0.00 0.00 0.00 0.00 0.00 0.00 0.00 0.00 0.00 0.00 0.00 0.00 0.00 0.00 0.00 0.00 0.00 0.00 0.00
0.00 0.00 0.00 0.00 0.00 0.00 0.00 0.00 0.00 0.00 0.00 0.00 0.00 0.00 0.00 0.00 0.00 0.00 0.00 0.00 0.00 0.00 0.00 0.00 0.00 0.00 0.00 0.00 0.00 0.00 0.00 0.00 0.00 0.00 0.00 0.00 0.00 0.00 0.00 0.00 0.00 0.00 0.00
0.00 0.00 0.00 0.00 0.00 0.00 0.00 0.00 0.00 0.00 0.00 0.00 0.00 0.00 0.00 0.00 0.00 0.00 0.00 0.00 0.00 0.00 0.00 0.00 0.00 0.00 0.00 0.00 0.00 0.00 0.00 0.00 0.00 0.00 0.00 0.00 0.00 0.00 0.00 0.00 0.00 0.00 0.00
0.00 0.00 0.00 0.00 0.00 0.00 0.00 0.00 0.00 0.00 0.00 0.00 0.00 0.00 0.00 0.00 0.00 0.00 0.00 0.00 0.00 0.00 0.00 0.00 0.00 0.00 0.00 0.00 0.00 0.00 0.00 0.00 0.00 0.00 0.00 0.00 0.00 0.00 0.00 0.00 0.00 0.00 0.00
0.00 0.00 0.00 0.00 0.00 0.00 0.00 0.00 0.00 0.00 0.00 0.00 0.00 0.00 0.00 0.00 0.00 0.00 0.00 0.00 0.00 0.00 0.00 0.00 0.00 0.00 0.00 0.00 0.00 0.00 0.00 0.00 0.00 0.00 0.00 0.00 0.00 0.00 0.00 0.00 0.00 0.00 0.00
0.00 0.00 0.00 0.00 0.00 0.00 0.00 0.00 0.00 0.00 0.00 0.00 0.00 0.00 0.00 0.00 0.00 0.00 0.00 0.00 0.00 0.00 0.00 0.00 0.00 0.00 0.00 0.00 0.00 0.00 0.00 0.00 0.00 0.00 0.00 0.00 0.00 0.00 0.00 0.00 0.00 0.00 0.00
0.00 0.00 0.00 0.00 0.00 0.00 0.00 0.00 0.00 0.00 0.00 0.00 0.00 0.00 0.00 0.00 0.00 0.00 0.00 0.00 0.00 0.00 0.00 0.00 0.00 0.00 0.00 0.00 0.00 0.00 0.00 0.00 0.00 0.00 0.00 0.00 0.00 0.00 0.00 0.00 0.00 0.00 0.00
0.01 0.00 0.01 0.00 0.00 0.00 0.00 0.00 0.00 0.00 0.00 0.00 0.00 0.00 0.00 0.00 0.00 0.00 0.00 0.00 0.00 0.00 0.00 0.00 0.00 0.00 0.00 0.00 0.00 0.00 0.00 0.00 0.00 0.00 0.00 0.00 0.00 0.00 0.00 0.00 0.00 0.00 0.00
0.03 0.04 0.04 0.01 0.00 0.00 0.00 0.00 0.00 0.00 0.00 0.00 0.00 0.00 0.00 0.00 0.00 0.00 0.00 0.00 0.00 0.00 0.00 0.00 0.00 0.00 0.00 0.00 0.00 0.00 0.00 0.00 0.00 0.00 0.00 0.00 0.00 0.00 0.00 0.00 0.00 0.00 0.00
0.04 0.04 0.09 0.08 0.03 0.00 0.00 0.00 0.00 0.00 0.00 0.00 0.00 0.00 0.00 0.00 0.00 0.00 0.00 0.00 0.00 0.00 0.00 0.00 0.00 0.00 0.00 0.00 0.00 0.00 0.00 0.00 0.00 0.00 0.00 0.00 0.00 0.00 0.00 0.00 0.00 0.00 0.00
0.03 0.07 0.11 0.12 0.16 0.04 0.00 0.00 0.00 0.00 0.00 0.00 0.00 0.00 0.00 0.00 0.00 0.00 0.00 0.00 0.00 0.00 0.00 0.00 0.00 0.00 0.00 0.01 0.00 0.00 0.00 0.00 0.00 0.00 0.00 0.00 0.00 0.00 0.00 0.00 0.00 0.00 0.00
0.00 0.04 0.08 0.08 0.10 0.14 0.14 0.05 0.03 0.02 0.01 0.04 0.02 0.03 0.01 0.00 0.02 0.03 0.00 0.00 0.00 0.02 0.03 0.04 0.06 0.04 0.06 0.10 0.08 0.03 0.01 0.00 0.00 0.00 0.01 0.00 0.00 0.00 0.00 0.00 0.00 0.00 0.00
0.00 0.02 0.06 0.06 0.12 0.29 0.47 0.48 0.25 0.04 0.04 0.08 0.11 0.09 0.08 0.11 0.20 0.28 0.24 0.08 0.09 0.18 0.16 0.11 0.12 0.03 0.00 0.01 0.00 0.00 0.00 0.00 0.00 0.00 0.00 0.00 0.00 0.00 0.00 0.00 0.00 0.00 0.00
0.00 0.00 0.01 0.02 0.08 0.05 0.09 0.09 0.10 0.03 0.03 0.11 0.08 0.06 0.22 0.35 0.32 0.30 0.38 0.37 0.32 0.37 0.22 0.09 0.02 0.01 0.00 0.00 0.00 0.00 0.00 0.00 0.00 0.00 0.00 0.00 0.00 0.00 0.00 0.00 0.00 0.00 0.00
0.00 0.00 0.00 0.01 0.02 0.01 0.04 0.07 0.07 0.01 0.01 0.06 0.08 0.08 0.16 0.21 0.11 0.14 0.11 0.14 0.08 0.05 0.02 0.01 0.00 0.00 0.00 0.00 0.00 0.00 0.00 0.00 0.00 0.00 0.00 0.00 0.00 0.00 0.00 0.00 0.00 0.00 0.00
0.00 0.00 0.00 0.00 0.00 0.00 0.01 0.01 0.05 0.06 0.04 0.04 0.04 0.02 0.04 0.03 0.03 0.03 0.02 0.02 0.01 0.00 0.00 0.00 0.00 0.00 0.00 0.00 0.00 0.00 0.00 0.00 0.00 0.00 0.00 0.00 0.00 0.00 0.00 0.00 0.00 0.00 0.00
0.00 0.00 0.00 0.00 0.00 0.00 0.00 0.00 0.01 0.03 0.04 0.05 0.04 0.03 0.01 0.01 0.00 0.01 0.00 0.00 0.00 0.00 0.00 0.00 0.00 0.00 0.00 0.00 0.00 0.00 0.00 0.00 0.00 0.00 0.00 0.00 0.00 0.00 0.00 0.00 0.00 0.00 0.00
0.00 0.00 0.00 0.00 0.00 0.00 0.00 0.00 0.00 0.00 0.01 0.00 0.00 0.00 0.00 0.00 0.00 0.00 0.00 0.00 0.00 0.00 0.00 0.00 0.00 0.00 0.00 0.00 0.00 0.00 0.00 0.00 0.00 0.00 0.00 0.00 0.00 0.00 0.00 0.00 0.00 0.00 0.00
0.00 0.00 0.00 0.00 0.00 0.00 0.00 0.00 0.00 0.00 0.00 0.00 0.00 0.00 0.00 0.00 0.00 0.00 0.00 0.00 0.00 0.00 0.00 0.00 0.00 0.00 0.00 0.00 0.00 0.00 0.00 0.00 0.00 0.00 0.00 0.00 0.00 0.00 0.00 0.00 0.00 0.00 0.00
0.00 0.00 0.00 0.00 0.00 0.00 0.00 0.00 0.00 0.00 0.00 0.00 0.00 0.00 0.00 0.00 0.00 0.00 0.00 0.00 0.00 0.00 0.00 0.00 0.00 0.00 0.00 0.00 0.00 0.00 0.00 0.00 0.00 0.00 0.00 0.00 0.00 0.00 0.00 0.00 0.00 0.00 0.00
MSLP
1004.56 1005.92 1006.32 1006.77 1007.46 1008.15 1008.75 1009.17 1009.53 1009.88 1010.17 1010.53 1010.91 1011.23 1011.67 1011.95 1012.28 1012.54 1012.67 1012.74 1012.94 1013.18 1013.40 1013.72 1013.96 1014.16 1014.44 1014.51 1014.50 1014.56 1014.69 1014.80 1014.82 1014.87 1015.01 1015.15 1015.40 1015.55 1015.71 1015.77 1015.66 1015.84 1016.01
1004.27 1005.92 1006.39 1006.92 1007.40 1008.02 1008.77 1009.22 1009.67 1010.01 1010.27 1010.67 1011.15 1011.54 1011.87 1012.27 1012.54 1012.81 1013.02 1013.04 1013.19 1013.42 1013.69 1013.97 1014.17 1014.39 1014.67 1014.83 1014.93 1014.99 1014.96 1014.94 1014.98 1015.08 1015.19 1015.30 1015.32 1015.54 1015.77 1015.89 1015.80 1016.04 1016.14
1004.55 1005.83 1006.43 1006.96 1007.33 1007.94 1008.58 1009.19 1009.71 1010.10 1010.45 1010.86 1011.21 1011.68 1012.03 1012.43 1012.76 1013.01 1013.22 1013.40 1013.47 1013.66 1013.93 1014.14 1014.33 1014.56 1014.82 1015.11 1015.21 1015.26 1015.12 1015.01 1015.09 1015.24 1015.32 1015.21 1015.33 1015.36 1015.68 1015.88 1016.04 1016.19 1016.27
1004.73 1005.85 1006.47 1006.99 1007.37 1007.90 1008.49 1009.08 1009.68 1010.14 1010.56 1010.91 1011.30 1011.72 1012.22 1012.61 1012.94 1013.22 1013.42 1013.63 1013.67 1013.79 1014.01 1014.29 1014.48 1014.69 1014.94 1015.24 1015.32 1015.38 1015.21 1015.03 1015.11 1015.14 1015.02 1014.83 1014.91 1015.48 1015.54 1015.86 1016.11 1016.31 1016.51
1004.48 1005.32 1006.31 1006.99 1007.42 1007.81 1008.39 1008.97 1009.54 1010.12 1010.55 1010.98 1011.34 1011.72 1012.14 1012.60 1013.02 1013.29 1013.53 1013.75 1013.82 1013.91 1014.10 1014.34 1014.60 1014.84 1015.08 1015.33 1015.42 1015.46 1015.35 1015.14 1015.17 1015.01 1014.48 1014.14 1014.83 1015.47 1015.61 1015.76 1016.12 1016.29 1016.44
1004.60 1005.12 1006.38 1006.68 1007.23 1007.73 1008.25 1008.76 1009.28 1009.92 1010.48 1010.89 1011.33 1011.77 1012.12 1012.39 1012.71 1013.03 1013.40 1013.70 1013.88 1014.02 1014.20 1014.37 1014.64 1014.88 1015.10 1015.29 1015.45 1015.48 1015.44 1015.27 1015.18 1014.64 1013.97 1014.01 1014.44 1015.18 1015.48 1015.69 1015.86 1016.13 1016.31
1004.49 1005.51 1006.49 1006.72 1006.96 1007.36 1007.96 1008.56 1009.03 1009.54 1010.13 1010.69 1011.18 1011.66 1012.14 1012.50 1012.73 1012.98 1013.21 1013.51 1013.75 1013.99 1014.16 1014.30 1014.53 1014.83 1015.01 1015.20 1015.34 1015.40 1015.47 1015.41 1015.21 1014.46 1013.86 1013.98 1014.56 1015.06 1015.25 1015.48 1015.64 1015.85 1016.06
1004.04 1005.68 1006.45 1006.74 1006.80 1006.99 1007.33 1008.03 1008.57 1009.12 1009.79 1010.27 1010.91 1011.48 1011.95 1012.37 1012.71 1012.98 1013.12 1013.34 1013.60 1013.85 1014.15 1014.38 1014.51 1014.73 1014.88 1015.05 1015.17 1015.22 1015.30 1015.34 1015.05 1014.55 1013.99 1013.77 1014.42 1014.75 1015.00 1015.27 1015.43 1015.63 1015.76
1002.88 1004.74 1006.22 1006.90 1007.12 1007.27 1007.38 1007.87 1008.43 1008.91 1009.46 1010.16 1010.68 1011.12 1011.67 1012.09 1012.52 1012.96 1013.14 1013.31 1013.49 1013.71 1013.93 1014.19 1014.37 1014.54 1014.69 1014.79 1014.87 1014.91 1014.97 1015.06 1015.10 1014.72 1014.02 1014.11 1014.25 1014.46 1014.67 1014.92 1015.12 1015.33 1015.49
1002.24 1003.91 1005.67 1006.58 1007.46 1007.63 1008.04 1008.36 1008.74 1009.21 1009.54 1010.08 1010.61 1011.02 1011.34 1011.70 1012.09 1012.50 1012.93 1013.20 1013.38 1013.55 1013.71 1013.99 1014.20 1014.27 1014.40 1014.56 1014.63 1014.66 1014.69 1014.78 1014.81 1014.46 1013.81 1013.71 1013.96 1014.02 1014.22 1014.49 1014.62 1014.81 1014.92
1002.34 1003.30 1004.87 1006.01 1006.99 1007.16 1007.65 1008.24 1008.75 1009.18 1009.67 1010.06 1010.54 1010.96 1011.32 1011.43 1011.78 1012.04 1012.51 1012.79 1013.13 1013.31 1013.48 1013.69 1013.93 1014.10 1014.20 1014.24 1014.23 1014.13 1014.25 1014.23 1013.98 1013.48 1013.13 1013.32 1013.56 1013.65 1013.77 1014.03 1014.23 1014.35 1014.49
1001.49 1002.58 1003.78 1005.09 1006.28 1006.72 1007.11 1008.45 1008.91 1009.35 1009.70 1010.01 1010.30 1010.76 1010.94 1010.85 1011.03 1011.18 1011.50 1012.22 1012.69 1012.97 1013.18 1013.30 1013.44 1013.66 1013.80 1013.64 1013.23 1013.37 1013.70 1013.48 1013.22 1012.80 1012.51 1012.82 1012.91 1013.02 1013.21 1013.46 1013.73 1013.84 1013.97
1000.61 1001.57 1003.15 1004.99 1005.92 1005.93 1006.05 1007.27 1007.84 1008.54 1009.21 1009.73 1009.88 1010.39 1010.55 1010.23 1010.35 1010.55 1010.98 1011.59 1011.99 1012.46 1012.65 1012.79 1012.97 1013.20 1013.00 1012.76 1012.25 1012.46 1012.62 1012.57 1012.42 1011.89 1011.78 1012.26 1012.37 1012.48 1012.63 1012.80 1013.07 1013.24 1013.44
1000.98 1000.70 1002.40 1003.56 1004.57 1004.77 1005.64 1006.43 1006.92 1007.63 1008.26 1008.89 1009.09 1009.66 1009.86 1009.98 1009.64 1009.89 1010.16 1010.64 1011.01 1011.25 1011.72 1011.70 1011.99 1011.93 1012.03 1011.81 1011.52 1011.44 1011.48 1011.36 1011.29 1011.29 1011.27 1011.73 1012.00 1012.16 1012.32 1012.45 1012.49 1012.60 1012.62
1003.04 1003.90 1005.80 1005.25 1004.60 1004.13 1005.70 1006.03 1006.11 1006.37 1007.04 1007.77 1008.31 1008.72 1009.09 1009.16 1009.44 1009.60 1009.61 1009.61 1010.07 1009.99 1010.70 1010.87 1010.84 1010.88 1011.15 1010.75 1010.69 1010.74 1010.76 1010.53 1010.52 1010.68 1011.05 1011.55 1011.92 1012.01 1011.97 1012.04 1012.13 1012.26 1012.18
1002.74 1004.46 1004.29 1003.37 1005.64 1004.85 1005.84 1005.98 1006.66 1006.40 1006.81 1007.12 1007.54 1008.06 1008.43 1008.74 1008.90 1009.43 1009.43 1009.36 1009.38 1009.18 1009.35 1009.83 1010.13 1010.25 1010.38 1010.53 1010.62 1010.57 1010.09 1009.50 1009.99 1010.31 1010.42 1010.97 1011.27 1011.48 1011.52 1011.38 1011.41 1011.35 1011.37
1003.32 1003.98 1003.30 1006.41 1005.34 1006.83 1006.91 1007.14 1006.97 1006.56 1006.58 1006.83 1007.14 1007.29 1008.44 1008.91 1008.82 1009.23 1009.37 1009.57 1009.46 1009.22 1009.40 1009.45 1009.83 1010.14 1010.43 1010.93 1010.88 1010.33 1010.63 1011.31 1010.01 1010.80 1010.16 1010.34 1010.48 1010.33 1010.57 1010.51 1010.66 1010.50 1010.50
1003.27 1004.57 1006.47 1005.61 1006.34 1007.84 1007.64 1007.42 1007.57 1007.29 1006.91 1007.75 1008.49 1008.81 1008.12 1009.17 1009.08 1009.30 1009.38 1009.12 1009.10 1009.15 1009.60 1009.98 1010.43 1010.41 1010.81 1012.01 1011.86 1010.67 1010.15 1011.55 1010.03 1010.09 1009.50 1009.55 1009.62 1009.57 1009.50 1009.78 1009.80 1009.90 1009.82
1003.14 1005.24 1006.27 1007.10 1006.32 1006.54 1008.60 1009.16 1008.01 1008.17 1008.02 1008.82 1009.21 1009.08 1009.50 1008.49 1008.66 1009.65 1009.78 1009.49 1008.74 1009.44 1009.70 1010.14 1010.39 1010.57 1010.59 1010.83 1010.78 1010.18 1009.72 1008.91 1008.86 1009.21 1009.71 1009.85 1009.63 1009.46 1009.16 1008.91 1008.82 1008.89 1008.91
1002.70 1004.38 1005.14 1005.57 1006.07 1006.39 1007.97 1008.24 1006.98 1008.37 1008.65 1009.05 1009.80 1010.52 1010.45 1010.12 1007.99 1009.37 1011.12 1011.18 1009.95 1010.32 1008.75 1009.32 1010.00 1010.17 1010.45 1010.47 1010.20 1009.95 1009.70 1009.50 1009.44 1009.45 1009.55 1009.47 1009.24 1008.95 1008.73 1008.48 1008.17 1008.04 1008.04
1002.93 1003.34 1003.72 1004.34 1005.25 1006.23 1006.78 1007.47 1008.09 1008.28 1008.39 1009.32 1009.76 1010.00 1009.44 1008.17 1008.85 1010.00 1010.37 1009.98 1009.91 1009.61 1009.07 1009.75 1010.31 1010.70 1010.82 1010.91 1010.82 1010.55 1010.45 1010.22 1010.02 1009.88 1009.62 1009.18 1008.83 1008.23 1007.85 1007.63 1007.50 1007.31 1007.11
1003.00 1003.59 1003.90 1004.33 1004.96 1004.91 1005.77 1005.85 1007.07 1007.68 1007.29 1007.84 1008.70 1008.97 1008.83 1008.95 1009.26 1009.76 1009.73 1009.97 1009.41 1009.84 1009.98 1010.12 1010.41 1010.56 1010.92 1011.18 1011.45 1011.37 1011.08 1010.89 1010.71 1010.05 1009.56 1009.30 1009.01 1008.60 1008.36 1007.71 1007.64 1007.28 1007.40
1002.46 1003.57 1004.10 1004.55 1004.88 1005.21 1005.38 1005.32 1006.31 1007.09 1007.47 1008.15 1008.65 1008.63 1008.36 1008.27 1008.81 1009.17 1009.50 1009.79 1009.69 1010.32 1010.41 1010.36 1010.38 1010.59 1011.03 1011.05 1011.20 1011.60 1011.19 1010.98 1010.55 1010.12 1009.72 1009.24 1008.97 1008.57 1008.11 1007.54 1007.25 1006.76 1006.58
1001.88 1002.86 1003.45 1003.96 1004.44 1005.14 1005.19 1005.37 1005.79 1007.00 1007.67 1007.27 1008.02 1007.84 1008.11 1008.73 1009.30 1009.28 1009.76 1010.32 1010.32 1010.36 1010.22 1010.10 1010.41 1010.67 1011.04 1011.31 1011.14 1010.79 1010.81 1010.82 1010.49 1009.55 1009.50 1008.98 1008.49 1008.16 1007.53 1007.12 1006.74 1006.25 1005.89
1001.74 1002.66 1003.28 1003.94 1004.25 1004.68 1005.18 1005.61 1005.94 1006.86 1006.81 1007.76 1007.31 1007.71 1008.43 1009.02 1009.06 1009.68 1009.59 1009.96 1010.07 1010.11 1010.01 1010.15 1010.47 1010.67 1010.90 1010.84 1011.18 1011.04 1010.48 1010.31 1010.09 1009.80 1008.74 1008.52 1008.02 1007.43 1006.88 1006.66 1006.32 1005.93 1005.36
1001.38 1002.50 1003.32 1004.02 1005.17 1005.29 1005.64 1006.06 1006.97 1006.71 1007.03 1007.88 1008.30 1008.44 1008.80 1009.39 1008.99 1009.14 1009.24 1009.49 1009.61 1010.00 1010.18 1010.33 1010.50 1010.60 1010.90 1010.78 1010.91 1010.84 1010.52 1010.23 1009.81 1009.75 1008.84 1008.22 1007.66 1007.23 1006.43 1006.07 1005.65 1005.64 1005.06
Thickness
5865 5858 5855 5851 5845 5840 5836 5834 5832 5829 5827 5824 5821 5819 5815 5813 5810 5808 5808 5808 5805 5801 5798 5795 5793 5790 5787 5786 5787 5786 5784 5782 5780 5778 5775 5773 5770 5768 5766 5764 5766 5764 5762
5870 5857 5854 5850 5845 5840 5834 5831 5829 5827 5825 5822 5818 5816 5813 5809 5807 5805 5803 5804 5803 5799 5796 5793 5791 5789 5785 5783 5782 5782 5782 5780 5778 5775 5773 5772 5771 5768 5766 5764 5765 5762 5760
5866 5857 5852 5847 5845 5840 5834 5830 5827 5824 5822 5819 5817 5813 5810 5807 5804 5802 5800 5799 5799 5796 5793 5791 5790 5788 5784 5780 5780 5779 5780 5779 5776 5774 5772 5772 5770 5770 5767 5764 5762 5761 5759
5863 5854 5850 5846 5843 5838 5834 5829 5825 5822 5820 5818 5815 5811 5806 5803 5801 5798 5796 5795 5795 5794 5791 5788 5787 5785 5782 5778 5778 5777 5778 5778 5776 5774 5774 5774 5774 5769 5768 5764 5761 5758 5755
5863 5856 5849 5844 5840 5837 5833 5829 5824 5820 5818 5815 5813 5810 5807 5802 5798 5796 5794 5792 5792 5791 5789 5787 5785 5782 5780 5776 5775 5775 5776 5777 5775 5775 5778 5779 5773 5768 5765 5763 5759 5756 5754
5859 5855 5846 5845 5840 5837 5832 5828 5825 5820 5816 5814 5811 5807 5804 5802 5800 5797 5794 5791 5789 5789 5787 5785 5783 5780 5778 5776 5774 5774 5774 5774 5774 5776 5780 5779 5775 5769 5765 5762 5760 5756 5753
5856 5849 5842 5842 5840 5838 5833 5829 5825 5821 5817 5813 5810 5806 5803 5800 5798 5797 5795 5792 5789 5786 5785 5784 5782 5779 5777 5774 5773 5772 5771 5771 5771 5776 5780 5778 5773 5769 5766 5763 5761 5758 5754
5855 5845 5839 5837 5838 5837 5835 5830 5826 5822 5817 5814 5809 5806 5802 5799 5797 5794 5794 5792 5789 5785 5783 5781 5780 5778 5776 5774 5772 5772 5770 5769 5770 5773 5777 5778 5773 5770 5767 5764 5762 5758 5756
5860 5846 5837 5832 5831 5831 5831 5827 5824 5820 5816 5811 5807 5805 5801 5798 5795 5791 5790 5789 5787 5784 5782 5780 5779 5777 5775 5773 5772 5772 5771 5769 5768 5770 5775 5773 5772 5770 5768 5765 5762 5760 5757
5858 5850 5838 5831 5825 5824 5820 5818 5816 5814 5812 5808 5804 5801 5800 5798 5795 5793 5789 5785 5784 5783 5781 5779 5777 5776 5775 5774 5772 5771 5771 5768 5768 5769 5775 5774 5772 5771 5769 5766 5764 5762 5760
5847 5850 5841 5832 5825 5823 5819 5815 5811 5808 5805 5803 5799 5797 5795 5795 5794 5791 5787 5784 5781 5780 5778 5776 5775 5773 5772 5772 5771 5772 5771 5770 5770 5773 5776 5775 5772 5771 5770 5767 5764 5762 5759
5841 5845 5844 5834 5823 5819 5816 5806 5803 5800 5797 5797 5796 5794 5794 5796 5795 5793 5789 5784 5780 5777 5776 5775 5774 5772 5770 5771 5773 5774 5771 5772 5772 5774 5777 5777 5773 5772 5769 5766 5763 5762 5759
5846 5844 5833 5823 5817 5818 5819 5808 5804 5801 5797 5793 5794 5791 5791 5794 5793 5792 5788 5783 5779 5776 5774 5773 5771 5769 5771 5773 5776 5776 5774 5774 5774 5777 5776 5776 5774 5771 5769 5767 5764 5761 5758
5838 5842 5819 5824 5813 5817 5817 5809 5807 5803 5799 5796 5795 5791 5790 5790 5793 5791 5789 5785 5781 5779 5775 5775 5771 5773 5773 5773 5775 5776 5777 5777 5778 5778 5776 5774 5773 5770 5766 5766 5764 5762 5761
5813 5811 5770 5779 5798 5804 5803 5806 5808 5806 5802 5797 5794 5792 5790 5791 5788 5787 5787 5785 5781 5782 5775 5774 5775 5775 5774 5776 5776 5777 5776 5777 5777 5776 5774 5771 5768 5765 5764 5762 5762 5759 5758
5805 5792 5768 5779 5749 5777 5788 5797 5791 5794 5791 5793 5792 5790 5789 5786 5786 5782 5781 5780 5780 5780 5778 5773 5770 5771 5773 5775 5772 5773 5777 5781 5774 5773 5770 5763 5764 5764 5762 5762 5760 5760 5759
5787 5792 5799 5761 5712 5764 5773 5776 5782 5787 5791 5793 5793 5791 5777 5773 5776 5773 5769 5766 5769 5770 5767 5768 5766 5766 5768 5762 5760 5771 5758 5753 5750 5758 5763 5761 5766 5765 5762 5763 5761 5759 5758
5787 5778 5763 5776 5760 5747 5759 5769 5766 5770 5784 5781 5774 5768 5770 5758 5761 5762 5759 5765 5765 5762 5758 5753 5749 5752 5756 5743 5722 5748 5734 5743 5752 5755 5763 5762 5765 5762 5761 5759 5760 5758 5755
5781 5763 5754 5750 5765 5772 5744 5740 5732 5755 5771 5764 5755 5763 5743 5752 5754 5744 5740 5753 5756 5746 5744 5739 5739 5743 5747 5746 5739 5745 5754 5763 5762 5760 5754 5749 5750 5751 5754 5757 5759 5757 5756
5772 5758 5754 5758 5761 5763 5747 5749 5720 5747 5755 5753 5744 5740 5740 5740 5738 5740 5728 5732 5728 5731 5725 5736 5729 5734 5736 5738 5739 5741 5742 5745 5747 5748 5746 5747 5747 5750 5751 5752 5754 5753 5754
5759 5758 5748 5749 5746 5746 5748 5737 5734 5740 5744 5742 5730 5729 5736 5682 5715 5731 5727 5732 5718 5736 5735 5728 5724 5720 5717 5719 5718 5721 5724 5728 5731 5734 5736 5740 5742 5747 5748 5749 5749 5749 5750
5744 5748 5746 5740 5736 5745 5741 5739 5735 5745 5746 5743 5738 5724 5720 5717 5712 5721 5726 5727 5730 5724 5720 5714 5711 5708 5706 5706 5698 5698 5696 5708 5713 5721 5726 5726 5728 5732 5733 5738 5736 5739 5737
5737 5735 5736 5736 5733 5732 5740 5744 5737 5731 5734 5730 5730 5723 5723 5723 5718 5718 5717 5716 5718 5709 5703 5703 5703 5701 5694 5698 5696 5684 5681 5683 5696 5708 5712 5715 5715 5717 5722 5728 5730 5733 5733
5737 5736 5732 5732 5732 5732 5731 5732 5731 5717 5712 5728 5722 5727 5720 5710 5705 5705 5704 5702 5701 5698 5696 5695 5692 5690 5688 5682 5687 5692 5689 5686 5679 5686 5700 5704 5710 5708 5714 5718 5721 5728 5729
5734 5732 5730 5725 5726 5723 5722 5721 5716 5708 5709 5707 5717 5713 5706 5700 5699 5692 5694 5692 5689 5686 5687 5685 5681 5678 5678 5678 5673 5677 5683 5683 5682 5677 5679 5689 5698 5705 5709 5710 5711 5716 5722
5732 5726 5723 5716 5709 5710 5712 5707 5700 5702 5700 5690 5688 5687 5686 5684 5687 5686 5687 5684 5681 5677 5675 5674 5672 5672 5669 5670 5667 5666 5667 5666 5668 5664 5670 5677 5681 5689 5700 5703 5705 5706 5714